[[{"header":{"parameterUnit":"m.s-1","parameterCategory":1,"la1":30.2991,"la2":30.254,"lo1":-89.0895,"lo2":-89.0444,"dy":0.0017,"dx":0.0017,"nx":28,"ny":28,"refTime":"2024-04-18T09:00:00:Z","depth":0,"parameterNumber":2,"parameterNumberName":"U-component_of_WINDS"},"data":[0,0,0,0,0,0,0,0,0,0,0,0,0,0,0,0,0,0,0,0,0,0,0,0,0,0,0,0,0,0,0,0,0,0,0,0,0,0,0,0,0,0,0,0,0,0,0,0,0,0,0,0,0,0,0,0,0,0,0.0433,0.0434,0,0.05,0.0501,0.0501,0.0528,0.0528,0.0528,0.0528,0.0596,0.0598,0.06,0,0,0,0,0,0,0,0,0,0,0,0,0,0.0328,0.033,0.0433,0.0434,0.0435,0.05,0.0501,0.0501,0.0528,0.0528,0.0528,0.0528,0.0595,0.0597,0.06,0,0,0,0,0,0,0,0,0,0,0,0,0,0.0382,0.033,0.0433,0.0456,0.0459,0.0499,0.0501,0.0502,0.0528,0.0528,0.0528,0.0527,0.0594,0.0597,0.06,0.0623,0,0,0.0609,0.061,0,0,0,0,0,0,0,0,0.0379,0.0386,0.0452,0.0455,0.0458,0.0505,0.0488,0.0542,0.0528,0.0502,0.0528,0.0527,0.0566,0.0571,0.0584,0.0626,0.0629,0.0609,0.0611,0.0612,0.0613,0,0,0,0,0,0,0,0.0375,0.0383,0.046,0.0453,0.0456,0.0462,0.047,0.0499,0.0534,0.0504,0.0506,0.0514,0.0567,0.0581,0.0586,0.063,0.0609,0.0612,0.0614,0.0615,0.0693,0.0693,0,0,0,0,0,0,0.0368,0.038,0.0457,0.0462,0.0417,0.0465,0.0473,0.049,0.0534,0.0541,0.0514,0.0515,0.0576,0.0583,0.0588,0.0617,0.0612,0.0615,0.0617,0.0692,0.0693,0.0693,0,0,0,0,0,0,0.0365,0.0374,0.0455,0.0421,0.0432,0.0467,0.0486,0.0492,0.0506,0.0542,0.0548,0.0522,0.0576,0.0584,0.0614,0.062,0.0617,0.0619,0.0692,0.0692,0.0693,0.0675,0,0,0,0,0,0,0.0362,0.0373,0.0383,0.0421,0.0434,0.0479,0.0486,0.0493,0.0511,0.0512,0.055,0.0556,0.0577,0.0609,0.0617,0.0624,0.0622,0.0692,0.0692,0.0693,0.0676,0.0675,0.0675,0,0,0,0,0,0.0358,0.0376,0.0383,0.0392,0.0446,0.048,0.0487,0.051,0.0511,0.052,0.0543,0.0555,0.0618,0.0612,0.0621,0.0629,0.0691,0.0692,0.0693,0.0676,0.0675,0.0675,0,0,0,0,0,0,0.0337,0.0381,0.039,0.042,0.0446,0.0484,0.0497,0.0509,0.0535,0.0535,0.0563,0.0571,0.0598,0.0617,0.0609,0.0652,0.0655,0.0658,0.064,0.064,0.0639,0.0634,0.0624,0,0,0,0,0,0.0336,0.036,0.0397,0.042,0.0432,0.0462,0.0478,0.0493,0.0521,0.0532,0.0557,0.0583,0.0609,0.0625,0.0651,0.0678,0.0686,0.0688,0.0687,0.0687,0.0689,0.0703,0.0704,0.0695,0.0695,0.0695,0,0,0.0334,0.0361,0.0375,0.0417,0.0438,0.0462,0.0471,0.0496,0.0514,0.0536,0.0565,0.0584,0.0615,0.0643,0.0657,0.0659,0.0693,0.0688,0.0687,0.0689,0.0704,0.0705,0.0706,0.0696,0.0695,0.0695,0,0,0.0343,0.0366,0.0387,0.0408,0.0441,0.046,0.0465,0.0501,0.0515,0.0544,0.0561,0.0582,0.0625,0.0646,0.0663,0.0677,0.0689,0.0684,0.0683,0.0697,0.0697,0.0698,0.0703,0.0704,0.0686,0.0686,0.0686,0,0.0336,0.0373,0.0397,0.042,0.0437,0.0458,0.0479,0.0498,0.0538,0.0549,0.0551,0.0605,0.0627,0.066,0.0663,0.0676,0.0682,0.0681,0.0695,0.0696,0.0697,0.0702,0.0704,0.0685,0.0685,0.0685,0.0686,0,0.0363,0.0387,0.0401,0.0437,0.0456,0.0479,0.0505,0.0521,0.0534,0.0553,0.0582,0.0609,0.064,0.0649,0.0662,0.0683,0.0684,0.069,0.0694,0.0697,0.0702,0.0704,0.0684,0.0684,0.0685,0.0685,0,0,0.0361,0.041,0.0414,0.043,0.0467,0.0486,0.0509,0.0539,0.0551,0.0577,0.0596,0.0632,0.0637,0.0656,0.0672,0.0684,0.0692,0.0689,0.069,0.0688,0.0715,0.071,0.0712,0.07,0.07,0.07,0.0713,0,0.0374,0.0416,0.0437,0.0469,0.0492,0.051,0.053,0.0554,0.0572,0.0593,0.0612,0.0637,0.0643,0.0654,0.0667,0.0688,0.0698,0.0688,0.0717,0.0718,0.0709,0.0715,0.071,0.072,0.0715,0.0715,0.0715,0,0.0395,0.042,0.0455,0.0487,0.0498,0.0515,0.0543,0.0563,0.059,0.0602,0.0622,0.0637,0.066,0.0661,0.0694,0.0686,0.0699,0.0711,0.0712,0.0716,0.0717,0.0718,0.0724,0.0726,0.0718,0.0718,0.0718,0,0.039,0.0432,0.0458,0.0471,0.051,0.0522,0.0538,0.0565,0.0581,0.0606,0.0616,0.0643,0.0657,0.0678,0.0699,0.0698,0.0729,0.0732,0.0739,0.0738,0.0745,0.0745,0.0753,0.0753,0.0753,0.0753,0.0753,0,0.0402,0.0422,0.0456,0.0472,0.0494,0.0518,0.054,0.0558,0.0581,0.06,0.0618,0.0635,0.0662,0.0683,0.07,0.0723,0.073,0.074,0.0744,0.0738,0.0737,0.0748,0.0747,0.0754,0.0754,0.0754,0.0754,0,0.04,0.0424,0.0453,0.0487,0.0496,0.0511,0.054,0.0555,0.0573,0.0597,0.0604,0.0632,0.0657,0.068,0.0714,0.0725,0.0748,0.0754,0.0739,0.0742,0.0747,0.0746,0.0763,0.0766,0.0764,0.0764,0.0764,0,0.0407,0.0423,0.0458,0.0472,0.0488,0.0511,0.0527,0.055,0.0566,0.0597,0.0609,0.0635,0.0657,0.0696,0.0719,0.0744,0.075,0.0754,0.0754,0.0748,0.075,0.0749,0.075,0.0754,0.0754,0.0754,0.0754,0,0.0416,0.0426,0.0449,0.0475,0.0494,0.0516,0.0539,0.0549,0.0576,0.0593,0.0619,0.0636,0.0669,0.0694,0.0722,0.0738,0.075,0.0753,0.0756,0.0751,0.0741,0.0746,0.0738,0.0753,0.0753,0.0753,0.0753,0.0753,0.0418,0.0432,0.0459,0.0484,0.0503,0.0523,0.0539,0.0559,0.0581,0.061,0.0622,0.0647,0.0672,0.0711,0.0727,0.0747,0.0749,0.0754,0.0755,0.0755,0.0754,0.0738,0.0752,0.0752,0.0752,0.0752,0.0752,0,0.0427,0.0445,0.0467,0.0498,0.0517,0.0526,0.0551,0.0566,0.0589,0.0611,0.0632,0.0661,0.0685,0.0709,0.0735,0.0746,0.0752,0.0752,0.0751,0.0755,0.075,0.0745,0.0746,0.0746,0.0746,0.0746,0.0746,0.0746,0.0434,0.0459,0.0472,0.0506,0.0524,0.0549,0.0563,0.0581,0.0599,0.063,0.065,0.0666,0.0689,0.0716,0.0738,0.0745,0.0753,0.0751,0.0759,0.0755,0.0755,0.0755,0.0751,0.0753,0.0753,0.0762,0.0762,0.0762]},{"header":{"parameterUnit":"m.s-1","parameterCategory":1,"la1":30.2991,"la2":30.254,"lo1":-89.0895,"lo2":-89.0444,"dy":0.0017,"dx":0.0017,"nx":28,"ny":28,"refTime":"2024-04-18T09:00:00:Z","depth":0,"parameterNumber":3,"parameterNumberName":"V-component_of_WINDS"},"data":[0,0,0,0,0,0,0,0,0,0,0,0,0,0,0,0,0,0,0,0,0,0,0,0,0,0,0,0,0,0,0,0,0,0,0,0,0,0,0,0,0,0,0,0,0,0,0,0,0,0,0,0,0,0,0,0,0,0,3.6049,3.6048,0,3.597,3.597,3.5969,3.5895,3.5894,3.5893,3.5892,3.5807,3.5805,3.5804,0,0,0,0,0,0,0,0,0,0,0,0,0,3.6131,3.613,3.6049,3.6048,3.6047,3.5971,3.5969,3.5968,3.5895,3.5894,3.5893,3.5892,3.5807,3.5805,3.5804,0,0,0,0,0,0,0,0,0,0,0,0,0,3.6078,3.613,3.6049,3.6001,3.5996,3.5971,3.5969,3.5968,3.5895,3.5894,3.5892,3.5891,3.5808,3.5806,3.5803,3.5818,0,0,3.5797,3.5796,0,0,0,0,0,0,0,0,3.6082,3.6075,3.6009,3.6005,3.5999,3.5941,3.5967,3.5917,3.5895,3.5933,3.5892,3.589,3.5852,3.5846,3.5834,3.5814,3.581,3.5797,3.5795,3.5794,3.5794,0,0,0,0,0,0,0,3.6085,3.6078,3.6018,3.6008,3.6002,3.5982,3.5973,3.5957,3.5901,3.593,3.5924,3.5916,3.5849,3.5837,3.5832,3.5809,3.5797,3.5795,3.5794,3.5793,3.5796,3.5797,0,0,0,0,0,0,3.6097,3.6082,3.602,3.6015,3.6038,3.5982,3.5972,3.5961,3.5901,3.5891,3.5918,3.5913,3.5841,3.5834,3.5828,3.5842,3.5794,3.5792,3.5791,3.5794,3.5796,3.5798,0,0,0,0,0,0,3.6099,3.6092,3.6023,3.6047,3.6037,3.5982,3.597,3.596,3.5948,3.5892,3.5881,3.5916,3.584,3.5831,3.5821,3.5838,3.5792,3.579,3.5793,3.5795,3.5797,3.5868,0,0,0,0,0,0,3.6102,3.6093,3.6099,3.6048,3.6036,3.6019,3.5971,3.596,3.5945,3.5938,3.5887,3.5877,3.5838,3.5825,3.5819,3.5834,3.5788,3.5791,3.5794,3.5796,3.5864,3.5872,3.5879,0,0,0,0,0,3.6105,3.6121,3.61,3.6093,3.6042,3.602,3.6013,3.5969,3.5946,3.5951,3.5915,3.5879,3.5837,3.5824,3.5817,3.5832,3.579,3.5793,3.5796,3.5861,3.5871,3.5879,0,0,0,0,0,0,3.6174,3.6114,3.6089,3.609,3.6061,3.6008,3.6013,3.5981,3.5957,3.5951,3.5896,3.5885,3.5881,3.5855,3.5842,3.5842,3.5808,3.581,3.586,3.5869,3.5877,3.5883,3.5786,0,0,0,0,0,3.619,3.6178,3.6125,3.6131,3.6118,3.6068,3.6057,3.6025,3.5992,3.5979,3.5943,3.5911,3.589,3.5878,3.5856,3.586,3.5847,3.5866,3.5874,3.588,3.5883,3.5883,3.5891,3.5808,3.5808,3.5808,0,0,3.6221,3.6186,3.6182,3.6144,3.6118,3.6106,3.6058,3.6047,3.6038,3.5977,3.5966,3.5938,3.5899,3.5896,3.5893,3.5874,3.5903,3.5884,3.589,3.5889,3.5887,3.5895,3.5902,3.581,3.5809,3.5809,0,0,3.6272,3.6245,3.6248,3.6223,3.6185,3.6152,3.6152,3.6104,3.6084,3.6072,3.6027,3.6014,3.5979,3.5954,3.5936,3.5979,3.5945,3.5973,3.6014,3.6015,3.6021,3.6027,3.6043,3.6049,3.5976,3.5976,3.5976,0,3.6316,3.6298,3.6252,3.6245,3.6229,3.6175,3.6177,3.6154,3.611,3.61,3.608,3.6037,3.6007,3.5998,3.6008,3.5996,3.5994,3.5979,3.6024,3.6029,3.6034,3.6048,3.6054,3.598,3.5979,3.5979,3.5978,0,3.6354,3.6342,3.6348,3.6309,3.6294,3.6291,3.6244,3.6233,3.6203,3.6172,3.6161,3.6123,3.6093,3.6088,3.6057,3.6074,3.6064,3.6035,3.6,3.6047,3.6059,3.6064,3.5985,3.5984,3.5983,3.5982,0,0,3.6447,3.6383,3.6386,3.6369,3.6323,3.6312,3.6306,3.6279,3.6271,3.6242,3.6236,3.6209,3.6182,3.6163,3.6129,3.613,3.6167,3.61,3.6098,3.6115,3.6184,3.6206,3.6214,3.6144,3.6144,3.6145,3.6187,0,3.6491,3.648,3.6438,3.6439,3.6427,3.6376,3.6371,3.6342,3.6313,3.6297,3.6264,3.6246,3.6212,3.62,3.6198,3.6163,3.618,3.6159,3.6136,3.6136,3.6149,3.622,3.6244,3.6285,3.6192,3.6192,3.6193,0,3.6541,3.6519,3.6519,3.6474,3.6468,3.6464,3.6436,3.6422,3.6388,3.6366,3.6345,3.6308,3.6298,3.6265,3.625,3.6237,3.6225,3.6206,3.6207,3.6203,3.6168,3.6219,3.6297,3.6304,3.62,3.62,3.6199,0,3.661,3.6579,3.6575,3.6561,3.6509,3.6508,3.6486,3.645,3.6437,3.6411,3.6402,3.6375,3.636,3.6339,3.6296,3.6276,3.6286,3.6249,3.6267,3.6269,3.6272,3.6273,3.635,3.6264,3.6263,3.6263,3.6263,0,3.6665,3.6667,3.6606,3.6604,3.6604,3.6556,3.6558,3.653,3.6499,3.649,3.6443,3.6435,3.6377,3.6362,3.6328,3.6321,3.6314,3.6296,3.6287,3.6301,3.6303,3.6293,3.6289,3.6265,3.6265,3.6264,3.6264,0,3.6742,3.6701,3.6694,3.6646,3.6634,3.6636,3.6594,3.659,3.6558,3.6547,3.6541,3.6491,3.6471,3.6425,3.6392,3.6368,3.6371,3.6354,3.6383,3.6378,3.6399,3.6398,3.6473,3.648,3.6389,3.639,3.639,0,3.678,3.6781,3.6733,3.6725,3.6705,3.6691,3.6678,3.663,3.6617,3.6579,3.6579,3.6555,3.6534,3.6504,3.6464,3.6438,3.6421,3.6449,3.6417,3.6431,3.6422,3.6423,3.6423,3.6456,3.6458,3.6459,3.6459,0,3.6852,3.6832,3.6815,3.6791,3.6777,3.6755,3.6731,3.6726,3.6672,3.666,3.664,3.6624,3.6591,3.6569,3.6537,3.6513,3.6477,3.647,3.6473,3.6487,3.6505,3.6497,3.6404,3.6468,3.6468,3.6467,3.6466,3.6466,3.6911,3.6909,3.6876,3.6859,3.6836,3.6815,3.6809,3.6777,3.676,3.6731,3.6703,3.6686,3.6651,3.6606,3.6584,3.6569,3.6551,3.6555,3.6556,3.6558,3.6565,3.6507,3.6563,3.6562,3.6562,3.6562,3.6562,0,3.6981,3.6957,3.6942,3.6911,3.6897,3.6866,3.6838,3.6828,3.6814,3.6786,3.6767,3.6744,3.6722,3.668,3.6654,3.665,3.6633,3.6645,3.6645,3.664,3.6582,3.6582,3.6659,3.6659,3.6659,3.6659,3.6659,3.6659,3.7016,3.7013,3.6989,3.6973,3.6949,3.6934,3.692,3.69,3.6877,3.6855,3.6837,3.681,3.6776,3.6747,3.6726,3.6714,3.6706,3.6724,3.6707,3.6653,3.6644,3.6635,3.6636,3.6723,3.6723,3.6766,3.6767,3.6767]}]]